Regional Weather Roundup
Issued by NWS Wakefield, VA

Home | Current Version | Previous Version | Text Only | Print | Product List | Glossary Off
Versions: 1 2 3 4 5 6 7 8 9 10 11 12 13 14 15 16 17 18 19 20 21 22 23 24 25 26 27

000
ASUS41 KAKQ 020115
RWRAKQ

REGIONAL WEATHER ROUNDUP
NATIONAL WEATHER SERVICE WAKEFIELD VA
800 PM EST THU DEC 01 2016

Note: "fair" indicates few or no clouds below 12,000 feet with no
significant weather and/or obstructions to visibility. * = Denotes
station may not report precipitation (e.g., rain,snow,etc.),
thunder or fog.

VAZ042-051-052>054-056-020200-
NORTHERN VIRGINIA

CITY           SKY/WX    TMP DP  RH WIND       PRES   REMARKS
WASH NATIONAL  PTCLDY    48  31  51 NW18G28   29.92R
DULLES         PTCLDY    45  30  55 NW10      29.92S
FORT BELVOIR   PTCLDY    47  29  50 NW14      29.91R
QUANTICO       CLEAR     48  29  47 N9        29.93R
FREDERICKSBRG* CLEAR     46  34  62 CALM      29.92R
STAFFORD*      CLEAR     43  31  62 N5        29.96R
WARRENTON      CLEAR     43  27  53 NW7       29.92R
CULPEPER*      CLEAR     46  31  56 CALM      29.93R
MANASSAS*      NOT AVBL
LEESBURG*      CLOUDY    46  32  57 NW10G18   29.94R
WINCHESTER     CLOUDY    43  30  61 NW13      29.91F
FRONT ROYAL*   CLOUDY    45  28  53 W6        29.92S
LURAY*         CLOUDY    43  32  65 NW6       29.93R
$$

VAZ048-049-060>072-079>083-020200-
CENTRAL AND SOUTH CENTRAL VIRGINIA

CITY           SKY/WX    TMP DP  RH WIND       PRES   REMARKS
RICHMOND       CLEAR     50  32  50 NW6       29.90R
CHESTERFIELD*  FAIR      48  25  40 NW5       29.92R
PETERSBURG*    CLEAR     46  32  59 CALM      29.92R
HANOVER        CLEAR     46  32  58 VRB3      29.92R
TAPPAHANNOCK*  CLEAR     49  30  49 N7        29.92R
QUINTON*       FAIR      45  37  74 CALM      29.90R
CHARLOTTSVILLE   N/A     46  28  49 CALM      29.93R
GORDONSVILLE*  FAIR      46  30  54 NW6       29.92R
ORANGE*          N/A     45  32  61 W9        29.93S
LOUISA*        CLEAR     48  34  57 NW5       29.91R
BUMPASS*       FAIR      46  32  58 CALM      29.91R
FARMVILLE*     CLEAR     46  34  64 CALM      29.91S
CREWE*         FAIR      47  32  55 NW5       29.91R
FORT PICKETT*  FAIR      46  26  46 W7        29.92R
CHASE CITY*    FAIR      47  31  52 NW6       29.93R
CLARKSVILLE*   FAIR      48  32  53 NW3       29.94R
SOUTH HILL*    CLEAR     48  34  58 NW3       29.98R
LAWRENCEVILLE* FAIR      47  34  61 CALM      29.92R
EMPORIA*       CLEAR     37  36  93 CALM      29.93R
$$

VAZ088>098-020200-
SOUTHEAST VIRGINIA

CITY           SKY/WX    TMP DP  RH WIND       PRES   REMARKS
NORFOLK        CLEAR     55  37  50 W5        29.89R
VIRGINIA BEACH CLEAR     51  35  54 W6        29.88R
NORFOLK NAVAL  CLEAR     54  39  57 W8        29.91R
WEST POINT*    CLEAR     40  37  90 CALM      29.91R
SALUDA*        FAIR      44  39  84 CALM      29.88S
NEWPORT NEWS   CLEAR     51  37  58 W6        29.90R
LANGLEY AFB    CLEAR     49  38  65 W9        29.89R
FORT EUSTIS    CLEAR     51  38  60 VRB5      29.88R
WILLIAMSBURG*  CLEAR     52  39  62 CALM      29.91R
HR EXEC AP*    FAIR      45  36  70 W5        29.89R
FRANKLIN*      CLEAR     44  36  75 CALM      29.92R
US460-WAKEFLD  CLEAR     45  38  76 CALM      29.91R
$$

VAZ020-022-025-037-045-020200-
WEST CENTRAL AND SOUTHWEST VIRGINIA

CITY           SKY/WX    TMP DP  RH WIND       PRES   REMARKS
STAUNTON*      CLOUDY    40  29  65 CALM      29.95R
WAYNESBORO*    FAIR      39  27  62 CALM      29.93R
HOT SPRINGS VA NOT AVBL
LYNCHBURG      CLEAR     43  30  60 S5        29.95R
DANVILLE       CLEAR     46  33  60 NW8       29.95R
SOUTH BOSTON*  FAIR      48  31  51 N12       29.93R
MARTINSVILLE   PTCLDY    44  31  59 CALM      29.99R
ROANOKE        CLEAR     44  28  53 NW14G24   29.98R
BLACKSBURG     CLEAR     38  29  69 W6        30.00R
DUBLIN*        CLEAR     40  30  67 W10       29.99R
MARION*        CLOUDY    40  31  70 W8        30.00R
HILLSVILLE*    CLEAR     38  31  76 W5        29.94R
RICHLANDS*     FAIR      36  28  74 W6        29.99R
WISE*          CLEAR     34  28  80 CALM      30.00S
ABINGDON*      CLEAR     38  31  76 W3        30.01R
$$

MDZ021>025-VAZ099-100-020200-
SOUTHERN MARYLAND AND THE DELMARVA PENINSULA

CITY           SKY/WX    TMP DP  RH WIND       PRES   REMARKS
PATUXENT RIVER PTCLDY    49  31  49 NW16      29.90R
BAY BRIDGE APT CLEAR     48  32  53 NW15G21   29.91R
LEONARDTOWN    PTCLDY    46  32  57 NW3       29.92R
DOVER          CLEAR     47  33  57 NW14      29.87R
GEORGETOWN     CLEAR     48  31  51 NW5       29.89R
EASTON         NOT AVBL
CAMBRIDGE      CLEAR     46  32  57 NW9G17    29.90R
SALISBURY      CLEAR     46  33  60 NW6       29.89R
OCEAN CITY     CLEAR     46  33  60 N8        29.89R
WALLOPS ISLAND PTCLDY    48  39  71 N5        29.90R
ACCOMACK*      PTCLDY    44  42  95 CALM      29.88R
$$

NCZ012>017-030>032-020200-
NORTH CENTRAL AND EASTERN NORTH CAROLINA

CITY           SKY/WX    TMP DP  RH WIND       PRES   REMARKS
ROANOKE RAPIDS FAIR      45  37  76 SW3       29.92R
RALEIGH        PTCLDY    48  35  60 CALM      29.93R
ELIZABETH CITY CLEAR     50  35  56 NW7       29.91R
AHOSKIE*       CLEAR     44  38  78 CALM      29.92R
EDENTON*       CLEAR     52  38  58 CALM      29.92R
CURRITUCK*     CLEAR     55  35  47 CALM      29.91R
KILL DEVIL HLS CLEAR     56  43  61 CALM      29.89R
MANTEO         CLEAR     56  42  58 N7        29.90R
CAPE HATTERAS  CLEAR     58  48  69 NW6       29.89R
TARBORO*       NOT AVBL
GOLDSBORO      CLEAR     53  41  65 CALM      29.91R
WASHINGTON     CLEAR     51  41  69 NW3       29.92R
GREENVILLE     CLEAR     46  43  87 CALM      29.94R
NEW BERN       CLEAR     52  42  69 CALM      29.92R
WILMINGTON     CLEAR     53  48  83 SW3       29.93R
$$

VAZ048-020200-
ELSEWHERE

CITY           SKY/WX    TMP DP  RH WIND       PRES   REMARKS
HARRISBURG PA  CLOUDY    44  28  53 W14       29.90R
BALTIMORE      MOCLDY    47  31  53 NW15G22   29.91R
ANNAPOLIS      CLEAR     50  32  50 NW9       29.91R
ANDREWS AFB    CLEAR     46  30  52 NW15      29.90R
PHILADELPHIA   CLOUDY    48  30  49 W18G25    29.88R
HENDERSON NC   CLEAR     48  30  49 CALM      29.93R
GREENSBORO     CLEAR     48  32  53 NW6       29.94R
ROCKY MOUNT    CLEAR     43  39  86 CALM      29.93R
$$

VAZ100-020200-
MARINE

STATION/POSITION TIME  TEMP    WIND        PRES    WAVE   SWELL
                       AIR SEA DIR/SP/G            HT/PER HT/PER
                 (UTC) (F)     (DEG/KT/KT) (MB)    (FT/S) (FT/S)
BRANDYWINE LGT   0042   49     320/ 11/ 16   N/A
CAPE MAY NJ      0042   49 52  310/ 17/ 21 1011.0R
LEWES DE         0042   50 52  310/ 16/ 18 1011.5R
OCEAN-CITY-INLET 0048          340/ 11/ 13   N/A
WACHAPREAGUE VA  0042   46 57  300/  1/  2 1011.8R
THOMAS POINT MD  0100   48 51  320/ 15/ 16   N/A
GOOSES REEF MD   0100   50 52  360/ 14/ 17 1013.3    2/ 3
COVE POINT MD    0042   49     350/ 14/ 20 1013.1R
SOLOMONS ISLAND  0048          330/ 11/ 14   N/A
BISHOPS HEAD MD  0042   49 53  330/ 13/ 15 1012.7R
PINEY POINT MD   0048          350/ 12/ 13   N/A
POTOMAC MD       0100   51 53  360/ 12/ 14 1011.8
CAMBRIDGE MD     0042   50 50  300/ 12/ 17 1011.7R
LEWISETTA VA     0042   51 54  360/  9/ 13 1012.2R
RAPPAHANNOCK LGT 0048          210/  2/  2 1012.3R
STINGRAY PT      0100   53     270/  4/  4 1012.1    0
YORK RVR RNG VA  0042   55     280/  9/  9 1011.4R
YORKTOWN VA      0042   55 54  260/  7/ 11 1011.5R
JAMESTOWN VA     0100   52 54  230/  6/  8   N/A     0
DOMINION TERM VA 0042   55     290/ 10/ 11 1012.2R
KIPTOPEKE VA     0048      55   50/  3/  3   N/A
CHES BAY BRIDGE  0036   56 55  280/  9/ 10 1011.9R
CAPE HENRY VA    0036   56     260/  8/ 11   N/A
WILLOUBY STN VA  0036   56     260/  9/  9 1012.9R
S CRANEY ISL VA  0036   55     270/  6/  9 1011.9R
CAPE HENRY BUOY  0042      57                N/A     2/ 8
1ST LANDING BUOY 0100   56 54              1012.1    1/ 4
CAPE CHARLES BUO 0056      57                N/A     2/ 8
OFFSHORE WE BUOY 0051      57                N/A     3/ 8
64NM E OF VA BCH 0050   59 59  320/ 16/ 19 1011.2R   4/ 8   3/ 8
DUCK PIER NC     0036   58 58  310/ 10/ 13 1011.7R
44100 DUCK FRF   0035      58                N/A     3/ 8
OREGON INLET NC  0048          300/  7/ 10   N/A
HATTERAS NC      0036   61 65  320/  6/  6 1011.8R
DIAMOND SHLS NC  0050   66 75  340/ 14/ 17 1011.9R   4/ 8   3/ 8
CAPE LOOKOUT NC  0100   62     310/  7/  8 1012.3R
$$




USA.gov is the U.S. government's official web portal to all federal, state and local government web resources and services.